Torna al catalogo

GSAT 20

AttivoComunicazioniGEO
NORAD 62028·PAYLOAD·🇮🇳 India

Lanciato Nov 18, 2024 da Cape Canaveral Space Force Station

Loading…

TLE

AggiornatoSource: Space-Track

Epoca: Sep 14, 2026, 14:07 UTC

1 62028U 24214A   26257.58862106 -.00000028  00000-0  00000-0 0  9990
2 62028   0.0028 170.3965 0001472 202.4152 260.6469  1.00274326  6791

Traccia GSAT 20 in tempo reale con AllMySat

Download on the App Store